Location: Unspecified
(0.0000°N, 0.0000°E)
Time: 14:41:25
(UTC+00:00)

Vanguard 1 - All Passes

Search period start: 21 April 2015 00:00
Search period end: 01 May 2015 00:00
Orbit: 652 x 3833 km, 34.2° (Epoch: 19 April)

Date Brightness Start Highest point End Pass type
(mag) Time Alt. Az. Time Alt. Az. Time Alt. Az.
21 Apr - 01:55:28 10° SW 02:16:24 51° SSE 02:37:17 10° ENE visible
21 Apr - 04:20:46 10° WSW 04:44:47 77° NW 05:01:52 10° NE visible
21 Apr - 06:53:58 10° W 07:10:41 28° NW 07:21:11 10° NNE daylight
21 Apr - 14:23:58 10° N 14:26:35 15° NNE 14:29:25 10° ENE daylight
21 Apr - 16:42:14 10° WNW 16:46:44 46° SSW 16:53:17 10° SE daylight
21 Apr - 19:06:53 10° SW 19:10:07 12° SSW 19:13:46 10° S visible
21 Apr - 21:34:48 10° S 21:38:05 11° S 21:42:19 10° SSE visible
21 Apr - 23:54:44 10° SSW 00:08:55 27° SSE 00:27:30 10° ESE visible
22 Apr - 02:16:49 10° SW 02:38:53 62° SE 02:59:49 10° ENE visible
22 Apr - 04:43:14 10° WSW 05:06:42 63° NW 05:23:03 10° NE visible
22 Apr - 07:19:21 10° WNW 07:32:50 21° NNW 07:41:31 10° N daylight
22 Apr - 14:44:04 10° NNW 14:47:57 29° NE 14:52:11 10° E daylight
22 Apr - 17:04:08 10° W 17:08:23 27° SSW 17:14:14 10° SSE daylight
22 Apr - 21:56:13 10° S 22:01:28 13° SSE 22:08:40 10° SE visible
23 Apr - 00:15:50 10° SSW 00:31:52 33° SSE 00:52:14 10° E visible
23 Apr - 02:38:19 10° SW 03:01:09 75° SE 03:21:56 10° ENE visible
23 Apr - 05:06:11 10° WSW 05:28:40 50° NW 05:44:03 10° NNE visible
23 Apr - 07:45:51 10° WNW 07:55:15 15° NNW 08:01:29 10° N daylight
23 Apr - 15:04:50 10° NW 15:09:10 59° NE 15:14:10 10° ESE daylight
23 Apr - 17:26:40 10° WSW 17:30:16 17° SSW 17:34:44 10° SSE daylight
23 Apr - 22:17:08 10° S 22:24:45 15° SSE 22:35:37 10° SE visible
24 Apr - 00:36:53 10° SSW 00:54:33 42° SSE 01:16:09 10° E visible
24 Apr - 03:00:01 10° SW 03:23:20 90° SE 03:43:42 10° NE visible
24 Apr - 05:29:45 10° W 05:50:43 39° NW 06:04:55 10° NNE visible
24 Apr - 08:14:22 10° NW 08:17:55 11° NNW 08:20:00 10° NNW daylight
24 Apr - 13:09:11 10° NNE 13:09:48 10° NNE 13:10:37 10° NE daylight
24 Apr - 15:26:03 10° WNW 15:30:25 69° SW 15:35:38 10° SE daylight
24 Apr - 17:50:36 10° SSW 17:52:22 11° SSW 17:54:06 10° S daylight
24 Apr - 22:37:54 10° SSW 22:47:52 20° SSE 23:02:15 10° ESE visible
25 Apr - 00:58:00 10° SW 01:17:00 52° SE 01:39:23 10° ENE visible
25 Apr - 03:21:58 10° WSW 03:45:24 76° NW 04:05:11 10° NE visible
25 Apr - 05:54:04 10° W 06:12:57 31° NNW 06:25:40 10° NNE daylight
25 Apr - 13:28:01 10° NNW 13:31:31 19° NNE 13:34:45 10° ENE daylight
25 Apr - 15:47:42 10° W 15:51:46 35° SSW 15:56:42 10° SSE daylight
25 Apr - 22:58:40 10° SSW 23:10:44 25° SSE 23:28:07 10° E visible
26 Apr - 01:19:11 10° SW 01:39:17 64° SE 02:02:03 10° ENE visible
26 Apr - 03:44:18 10° WSW 04:07:31 62° NW 04:26:28 10° NE visible
26 Apr - 06:19:15 10° WNW 06:35:25 23° NNW 06:46:18 10° NNE daylight
26 Apr - 13:48:28 10° NNW 13:53:00 35° NNE 13:57:05 10° E daylight
26 Apr - 16:09:56 10° WSW 16:13:20 20° SSW 16:17:15 10° SSE daylight
26 Apr - 23:19:26 10° SSW 23:33:19 32° SSE 23:53:06 10° E visible
27 Apr - 01:40:33 10° SW 02:01:26 77° SE 02:24:16 10° ENE visible
27 Apr - 04:07:06 10° WSW 04:29:43 50° NW 04:47:35 10° NE visible
27 Apr - 06:45:23 10° WNW 06:58:10 18° NNW 07:06:51 10° N daylight
27 Apr - 14:09:28 10° NW 14:14:18 70° NE 14:18:46 10° ESE daylight
27 Apr - 16:33:28 10° SW 16:35:07 11° SSW 16:36:42 10° S daylight
27 Apr - 21:23:08 10° S 21:27:45 12° SSE 21:34:36 10° SE visible
27 Apr - 23:40:17 10° SSW 23:55:40 41° SE 00:17:13 10° E visible
28 Apr - 02:02:07 10° SW 02:23:34 89° NW 02:46:08 10° NE visible
28 Apr - 04:30:30 10° W 04:52:03 40° NNW 05:08:36 10° NNE visible
28 Apr - 07:12:23 10° NW 07:21:08 14° NNW 07:27:14 10° N daylight
28 Apr - 12:11:04 10° NNW 12:14:39 15° NNE 12:17:44 10° ENE daylight
28 Apr - 14:30:53 10° WNW 14:35:32 57° SW 14:40:00 10° SE daylight
28 Apr - 21:42:53 10° S 21:50:31 17° SSE 22:01:58 10° ESE visible
29 Apr - 00:01:13 10° SW 00:17:49 52° SE 00:40:37 10° ENE visible
29 Apr - 02:23:57 10° WSW 02:45:42 74° NW 03:07:44 10° NE visible
29 Apr - 04:54:36 10° W 05:14:37 32° NNW 05:29:33 10° NNE visible
29 Apr - 07:40:06 10° NNW 07:44:19 11° NNW 07:47:14 10° N daylight
29 Apr - 12:31:21 10° NNW 12:36:27 26° NNE 12:40:25 10° E daylight
29 Apr - 14:52:47 10° W 14:56:49 28° SW 15:00:47 10° SSE daylight
29 Apr - 22:03:09 10° SSW 22:13:01 23° SSE 22:28:09 10° E night (unlit)
30 Apr - 00:22:17 10° SW 00:39:51 64° SE 01:03:26 10° ENE visible
30 Apr - 02:46:09 10° WSW 03:07:57 61° NW 03:29:07 10° NE visible
30 Apr - 05:19:32 10° WNW 05:37:26 25° NNW 05:50:29 10° NNE visible
30 Apr - 10:33:35 10° N 10:34:59 10° NNE 10:36:30 10° NNE daylight
30 Apr - 12:52:11 10° NW 12:58:01 45° NNE 13:02:22 10° ESE daylight
30 Apr - 15:15:29 10° WSW 15:18:14 15° SSW 15:20:53 10° S daylight
30 Apr - 22:23:38 10° SSW 22:35:15 30° SE 22:53:19 10° E visible
